User: anonymous
Location: Camp Creek
(33.9000°N, 111.8167°W)
Time: 16:40:20
(UTC-07:00)
Language:

Cosmos 1656 - Orbit

View from above orbital plane
View from above orbital plane
View from above satellite
View from above satellite

Ground track
Ground track

The orbit data is extracted from the following two-line orbital elements,

1 15755U 85042A   14212.03744721 -.00000134  00000-0 -40247-4 0  8103
2 15755 071.1122 059.8220 0037283 247.2739 112.4445 14.20296509511299
Epoch (UTC): 31 July 2014 00:53:55
Eccentricity: 0.0037283
inclination: 71.1122°
perigee height: 797 km
apogee height: 851 km
right ascension of ascending node: 59.8220°
argument of perigee: 247.2739°
revolutions per day: 14.20296509
mean anomaly at epoch: 112.4445°
orbit number at epoch: 51129

The dashed part of the orbit path shows where the satellite is in the earth's shadow,  

DLR